Weather in Sushchevo

Russia / Kostroma Oblast     57°55′24″N   40°57′37″E
temp.,
°C
wind,
m/s
gust,
m/s
humid.,
%
clouds,
%
prec.,
mm/h
press.,
hPa
HPBL,
m
16 september, thu
thu1600:00+7n3784100 0.1 1012721
03:00+5n398572 0.1 1014527
06:00+2nw28979 0.0 1016252
09:00+7nnw366298 0.0 1016914
12:00+8nnw3459100 0.0 1017900
15:00+8nw3460100 0.0 10171172
18:00+7nw2667100 0.0 1018356
21:00+6nw2775100 0.0 1018310
17 september, fri
fri1700:00+5nw2780100 0.0 1018271
03:00+3nnw25935 0.1 1019146
06:00+1nnw229529 0.0 101945
09:00+7nnw256432 0.0 1019604
12:00+8nnw4556100 0.0 10191313
15:00+8nnw466674 0.2 10201065
18:00+6n3880100 0.1 1021638
21:00+5nnw2782100 0.1 1022342
18 september, sat
sat1800:00+5nnw2786100 0.0 1023307
03:00+5nnw2689100 0.0 1023338
06:00+5n3793100 0.1 1025410
09:00+6nne466392 0.1 10261178
12:00+8nne345188 0.0 10261491
15:00+9nne344771 0.0 10261480
18:00+5nne22667 0.0 102619
21:00+2ne237850 0.0 102764
19 september, sun
sun1900:00+1ne258319 0.0 1028111
03:000ene279335 0.0 1028157
06:00−1ne249386 0.0 102979
09:00+4ne2362100 0.0 1029388
12:00+8ene3450100 0.0 10281246
15:00+9ne3449100 0.0 10261379
18:00+6ne3768100 0.0 1026236
21:00+4ne31078100 0.0 1027369
20 september, mon
mon2000:00+3ne31080100 0.0 1027363
03:00+2ne41184100 0.0 1027397
06:00+1ene41184100 0.0 1028430
09:00+4ene596699 0.0 1028864
12:00+7ene5754100 0.0 10271265
15:00+7ene575563 0.0 10271280
18:00+5ene5106640 0.0 1027829
21:00+3ne413775 0.0 1027583